Showing default

COSMOS 2329, 23791

Orbit data source: Space-Track

COSMOS 2329, 23791 is a payload satellite owned by VKS (CIS) in LEO that was launched on Mon, 19 Feb 1996 UTC via a TSIKLON-3 launch vehicle from the Plesetsk Missile And Space Complex (PKMTR). Payload-class satellites include a variety of spacecraft equipped with specific instruments for various scientific and technological missions. These include communications satellites like Starlink; space stations such as the ISS; scientific satellites like the Hubble; Earth observation satellites from companies like Planet Labs, Umbra, and HawkEye 360; GPS; miniature CubeSats for education and research; and military/defense satellites.

Loading next visibility...
Identifier
23791, 1996-009E
Orbit
LEO
Last TLE update
11 hours ago
Origin
Manufacturer
NPO PM
Mission
Non-operational Defense Communications
Bus & Motor
STRELA-3, Unknown motor
Mass
225 kg wet, 225 kg dry
Launch date (UTC)
1996-02-19 (29 years ago)
Launch vehicle
TSIKLON-3
Launch site
Plesetsk Missile And Space Complex (PKMTR)
Object type
Payload
Rocket body
Debris
Shape & HBR
Cyl + 1 Ant, 7 m
Radar Cross Section
1.583 m², Large (>1 m²)

Expand to show TLE details & history

TLE from 11 hours ago
0 COSMOS 2329
1 23791U 96009E   25186.58928578  .00000037  00000-0  14922-3 0  9991
2 23791  82.5709 186.9350 0009942 124.6093  13.4834 12.61694511352656
Epoch: 2025-07-05T14:08Z
TLE epoch observation values (Epoch: 2025-07-05T14:08:34.291Z)
Latitude
41.53161°
Longitude
-135.63208°
Altitude
1,414.337 km
Speed
7.161 km/s
True Right ascension
00h 01m 20s
True Declination
41° 22' 31"
Sunlit
Object was in daylight at epoch
Visualization orbit readout
Latitude
64.36901°
Longitude
-145.0233°
Altitude
1,419.363 km
Speed
7.16 km/s
Apparent Right ascension
00h 34m 32s
Apparent Declination
20° 07' 56"
Sunlit
Object is in daylight
Visualization observer readout
Local Sidereal Time
13:22:58
Azimuth
12.998° NNE
Elevation
-28.898°
Doppler factor
1
Orbital elements
Apogee altitude
1,421.026 km
Perigee altitude
1,405.534 km
Semi-major axis
7,791.417 km
Eccentricity
0.00099
Inclination
82.5709°
RAAN
186.935°
Arg. of periapsis
124.6093°
True anomaly
Unknown
Mean anomaly
13.4834°
Eccentric anomaly
Unknown
Mean motion
3.15587 °/min
Orbital period
114.07 mins
BSTAR
0.00014922
Loading maneuver chart data...
Loading SW <> Apogee altitude chart data...
Loading historical data...
Loading historical data...
Loading historical data...
Loading historical data...
Loading historical data...
Loading historical data...
Loading historical data...

COSMOS 2329 Visibility forecast

Observer location: undefined°, undefined°

Span
Click to sort rows by Start time (UTC) header in descending order
Start Az.
Max El. time (UTC)
Max El. Az.
Max El.
End time (UTC)
End Az.
8 mins2025-07-06 02:55:17.251Z268.383° W2025-07-06 02:59:17.251Z298.921° NW15.087°2025-07-06 03:03:17.251Z329.247° NNW
13 mins2025-07-06 10:58:17.251Z11.222° NNE2025-07-06 11:04:17.251Z71.153° E33.376°2025-07-06 11:11:17.251Z139.499° SSE
13 mins2025-07-06 12:53:17.251Z333.463° NNW2025-07-06 12:59:17.251Z275.372° WNW32.9°2025-07-06 13:06:17.251Z209.698° SW
14 mins2025-07-06 23:46:17.251Z150.371° SSE2025-07-06 23:53:17.251Z80.679° E33.438°2025-07-07 00:00:17.251Z21.858° NNE
|